Time,TemperatureF,DewpointF,PressureIn,WindDirection,WindDirectionDegrees,WindSpeedMPH,WindSpeedGustMPH,Humidity,HourlyPrecipIn,Conditions,Clouds,dailyrainin,SolarRadiationWatts/m^2,SoftwareType,DateUTC
2013-06-11 00:12:00,71.0,68.0,-100.00,SW,214,0.0,4.0,91,0.00,,,0.00,1.000000,,2013-06-11 05:12:00,
2013-06-11 00:22:00,71.0,68.0,-100.00,SW,214,0.0,4.0,91,0.00,,,0.00,1.000000,,2013-06-11 05:22:00,
2013-06-11 00:32:00,71.0,68.0,-100.00,SW,214,0.0,4.0,91,0.00,,,0.00,1.000000,,2013-06-11 05:32:00,
2013-06-11 00:42:00,71.0,68.0,-100.00,SW,214,0.0,4.0,91,0.00,,,0.00,1.000000,,2013-06-11 05:42:00,
2013-06-11 00:52:00,71.0,68.0,-100.00,SW,214,0.0,4.0,91,0.00,,,0.00,1.000000,,2013-06-11 05:52:00,
2013-06-11 01:12:00,69.0,67.0,-100.00,SW,226,0.0,2.0,94,0.00,,,0.00,1.000000,,2013-06-11 06:12:00,
2013-06-11 01:22:00,69.0,67.0,-100.00,SW,226,0.0,2.0,94,0.00,,,0.00,1.000000,,2013-06-11 06:22:00,
2013-06-11 01:32:00,69.0,67.0,-100.00,SW,226,0.0,2.0,94,0.00,,,0.00,1.000000,,2013-06-11 06:32:00,
2013-06-11 01:42:00,69.0,67.0,-100.00,SW,226,0.0,2.0,94,0.00,,,0.00,1.000000,,2013-06-11 06:42:00,
2013-06-11 01:52:00,69.0,67.0,-100.00,SW,226,0.0,2.0,94,0.00,,,0.00,1.000000,,2013-06-11 06:52:00,
2013-06-11 02:13:00,68.0,66.0,-100.00,SW,231,0.0,0.0,94,0.00,,,0.00,1.000000,,2013-06-11 07:13:00,
2013-06-11 02:22:00,68.0,66.0,-100.00,SW,231,0.0,0.0,94,0.00,,,0.00,1.000000,,2013-06-11 07:22:00,
2013-06-11 02:32:00,68.0,66.0,-100.00,SW,231,0.0,0.0,94,0.00,,,0.00,1.000000,,2013-06-11 07:32:00,
2013-06-11 02:42:00,68.0,66.0,-100.00,SW,231,0.0,0.0,94,0.00,,,0.00,1.000000,,2013-06-11 07:42:00,
2013-06-11 02:52:00,68.0,66.0,-100.00,SW,231,0.0,0.0,94,0.00,,,0.00,1.000000,,2013-06-11 07:52:00,
2013-06-11 03:12:00,67.0,66.0,-100.00,ESE,121,0.0,0.0,95,0.00,,,0.00,1.000000,,2013-06-11 08:12:00,
2013-06-11 03:22:00,67.0,66.0,-100.00,ESE,121,0.0,0.0,95,0.00,,,0.00,1.000000,,2013-06-11 08:22:00,
2013-06-11 03:32:00,67.0,66.0,-100.00,ESE,121,0.0,0.0,95,0.00,,,0.00,1.000000,,2013-06-11 08:32:00,
2013-06-11 03:42:00,67.0,66.0,-100.00,ESE,121,0.0,0.0,95,0.00,,,0.00,1.000000,,2013-06-11 08:42:00,
2013-06-11 03:52:00,67.0,66.0,-100.00,ESE,121,0.0,0.0,95,0.00,,,0.00,1.000000,,2013-06-11 08:52:00,
2013-06-11 03:53:00,66.0,64.0,-100.00,SW,229,0.0,0.0,94,0.00,,,0.00,1.000000,,2013-06-11 08:53:00,
2013-06-11 04:12:00,66.0,64.0,-100.00,SW,229,0.0,0.0,94,0.00,,,0.00,1.000000,,2013-06-11 09:12:00,
2013-06-11 04:22:00,66.0,64.0,-100.00,SW,229,0.0,0.0,94,0.00,,,0.00,1.000000,,2013-06-11 09:22:00,
2013-06-11 04:33:00,66.0,64.0,-100.00,SW,229,0.0,0.0,94,0.00,,,0.00,1.000000,,2013-06-11 09:33:00,
2013-06-11 04:43:00,66.0,64.0,-100.00,SW,229,0.0,0.0,94,0.00,,,0.00,1.000000,,2013-06-11 09:43:00,
2013-06-11 05:12:00,66.0,65.0,-100.00,North,358,0.0,3.0,95,0.00,,,0.00,1.000000,,2013-06-11 10:12:00,
2013-06-11 05:22:00,66.0,65.0,-100.00,North,358,0.0,3.0,95,0.00,,,0.00,1.000000,,2013-06-11 10:22:00,
2013-06-11 05:33:00,66.0,65.0,-100.00,North,358,0.0,3.0,95,0.00,,,0.00,1.000000,,2013-06-11 10:33:00,
2013-06-11 05:42:00,66.0,65.0,-100.00,North,358,0.0,3.0,95,0.00,,,0.00,1.000000,,2013-06-11 10:42:00,
2013-06-11 05:52:00,66.0,65.0,-100.00,North,358,0.0,3.0,95,0.00,,,0.00,1.000000,,2013-06-11 10:52:00,
2013-06-11 06:12:00,64.0,63.0,-100.00,ESE,114,0.0,2.0,96,0.00,,,0.00,2.000000,,2013-06-11 11:12:00,
2013-06-11 06:22:00,64.0,63.0,-100.00,ESE,114,0.0,2.0,96,0.00,,,0.00,2.000000,,2013-06-11 11:22:00,
2013-06-11 06:32:00,64.0,63.0,-100.00,ESE,114,0.0,2.0,96,0.00,,,0.00,2.000000,,2013-06-11 11:32:00,
2013-06-11 06:42:00,64.0,63.0,-100.00,ESE,114,0.0,2.0,96,0.00,,,0.00,2.000000,,2013-06-11 11:42:00,
2013-06-11 06:52:00,64.0,63.0,-100.00,ESE,114,0.0,2.0,96,0.00,,,0.00,2.000000,,2013-06-11 11:52:00,
2013-06-11 07:12:00,68.0,66.0,-100.00,WNW,300,0.0,2.0,92,0.00,,,-99.99,56.000000,,2013-06-11 12:12:00,
2013-06-11 07:22:00,68.0,66.0,-100.00,WNW,300,0.0,2.0,92,0.00,,,-99.99,56.000000,,2013-06-11 12:22:00,
2013-06-11 07:32:00,68.0,66.0,-100.00,WNW,300,0.0,2.0,92,0.00,,,-99.99,56.000000,,2013-06-11 12:32:00,
2013-06-11 07:42:00,68.0,66.0,-100.00,WNW,300,0.0,2.0,92,0.00,,,-99.99,56.000000,,2013-06-11 12:42:00,
2013-06-11 07:52:00,68.0,66.0,-100.00,WNW,300,0.0,2.0,92,0.00,,,-99.99,56.000000,,2013-06-11 12:52:00,
2013-06-11 08:12:00,75.0,68.0,-100.00,NW,326,2.0,4.0,78,0.00,,,-99.99,248.000000,,2013-06-11 13:12:00,
2013-06-11 08:22:00,75.0,68.0,-100.00,NW,326,2.0,4.0,78,0.00,,,-99.99,248.000000,,2013-06-11 13:22:00,
2013-06-11 08:32:00,75.0,68.0,-100.00,NW,326,2.0,4.0,78,0.00,,,-99.99,248.000000,,2013-06-11 13:32:00,
2013-06-11 08:42:00,75.0,68.0,-100.00,NW,326,2.0,4.0,78,0.00,,,-99.99,248.000000,,2013-06-11 13:42:00,
2013-06-11 08:52:00,75.0,68.0,-100.00,NW,326,2.0,4.0,78,0.00,,,-99.99,248.000000,,2013-06-11 13:52:00,
2013-06-11 09:12:00,80.0,69.0,-100.00,NE,45,3.0,5.0,70,0.00,,,0.00,452.000000,,2013-06-11 14:12:00,
2013-06-11 09:22:00,80.0,69.0,-100.00,NE,45,3.0,5.0,70,0.00,,,0.00,452.000000,,2013-06-11 14:22:00,
2013-06-11 09:32:00,80.0,69.0,-100.00,NE,45,3.0,5.0,70,0.00,,,0.00,452.000000,,2013-06-11 14:32:00,
2013-06-11 09:42:00,80.0,69.0,-100.00,NE,45,3.0,5.0,70,0.00,,,0.00,452.000000,,2013-06-11 14:42:00,
2013-06-11 09:52:00,80.0,69.0,-100.00,NE,45,3.0,5.0,70,0.00,,,0.00,452.000000,,2013-06-11 14:52:00,
2013-06-11 09:53:00,84.0,71.0,-100.00,East,96,4.0,6.0,66,0.00,,,0.00,657.000000,,2013-06-11 14:53:00,
2013-06-11 10:12:00,84.0,71.0,-100.00,East,96,4.0,6.0,66,0.00,,,0.00,657.000000,,2013-06-11 15:12:00,
2013-06-11 10:22:00,84.0,71.0,-100.00,East,96,4.0,6.0,66,0.00,,,0.00,657.000000,,2013-06-11 15:22:00,
2013-06-11 10:33:00,84.0,71.0,-100.00,East,96,4.0,6.0,66,0.00,,,0.00,657.000000,,2013-06-11 15:33:00,
2013-06-11 10:42:00,84.0,71.0,-100.00,East,96,4.0,6.0,66,0.00,,,0.00,657.000000,,2013-06-11 15:42:00,
2013-06-11 11:12:00,86.0,71.0,-100.00,ESE,120,6.0,10.0,62,0.00,,,0.00,816.000000,,2013-06-11 16:12:00,
2013-06-11 11:22:00,86.0,71.0,-100.00,ESE,120,6.0,10.0,62,0.00,,,0.00,816.000000,,2013-06-11 16:22:00,
2013-06-11 11:33:00,86.0,71.0,-100.00,ESE,120,6.0,10.0,62,0.00,,,0.00,816.000000,,2013-06-11 16:33:00,
2013-06-11 11:42:00,86.0,71.0,-100.00,ESE,120,6.0,10.0,62,0.00,,,0.00,816.000000,,2013-06-11 16:42:00,
2013-06-11 11:52:00,86.0,71.0,-100.00,ESE,120,6.0,10.0,62,0.00,,,0.00,816.000000,,2013-06-11 16:52:00,
2013-06-11 12:12:00,89.0,73.0,-100.00,East,91,6.0,11.0,60,0.00,,,0.00,931.000000,,2013-06-11 17:12:00,
2013-06-11 12:22:00,89.0,73.0,-100.00,East,91,6.0,11.0,60,0.00,,,0.00,931.000000,,2013-06-11 17:22:00,
2013-06-11 12:32:00,89.0,73.0,-100.00,East,91,6.0,11.0,60,0.00,,,0.00,931.000000,,2013-06-11 17:32:00,
2013-06-11 12:43:00,89.0,73.0,-100.00,East,91,6.0,11.0,60,0.00,,,0.00,931.000000,,2013-06-11 17:43:00,
2013-06-11 12:52:00,89.0,73.0,-100.00,East,91,6.0,11.0,60,0.00,,,0.00,931.000000,,2013-06-11 17:52:00,
2013-06-11 13:12:00,90.0,72.0,-100.00,East,83,8.0,13.0,56,0.00,,,0.00,1037.000000,,2013-06-11 18:12:00,
2013-06-11 13:22:00,90.0,72.0,-100.00,East,83,8.0,13.0,56,0.00,,,0.00,1037.000000,,2013-06-11 18:22:00,
2013-06-11 13:32:00,90.0,72.0,-100.00,East,83,8.0,13.0,56,0.00,,,0.00,1037.000000,,2013-06-11 18:32:00,
2013-06-11 13:42:00,90.0,72.0,-100.00,East,83,8.0,13.0,56,0.00,,,0.00,1037.000000,,2013-06-11 18:42:00,
2013-06-11 13:52:00,90.0,72.0,-100.00,East,83,8.0,13.0,56,0.00,,,0.00,1037.000000,,2013-06-11 18:52:00,
2013-06-11 14:12:00,93.0,73.0,-100.00,ESE,104,8.0,13.0,52,0.00,,,0.00,991.000000,,2013-06-11 19:12:00,
2013-06-11 14:22:00,93.0,73.0,-100.00,ESE,104,8.0,13.0,52,0.00,,,0.00,991.000000,,2013-06-11 19:22:00,
2013-06-11 14:33:00,93.0,73.0,-100.00,ESE,104,8.0,13.0,52,0.00,,,0.00,991.000000,,2013-06-11 19:33:00,
2013-06-11 14:42:00,93.0,73.0,-100.00,ESE,104,8.0,13.0,52,0.00,,,0.00,991.000000,,2013-06-11 19:42:00,
2013-06-11 14:52:00,93.0,73.0,-100.00,ESE,104,8.0,13.0,52,0.00,,,0.00,991.000000,,2013-06-11 19:52:00,
2013-06-11 15:12:00,92.0,73.0,-100.00,East,80,7.0,11.0,54,0.00,,,0.00,885.000000,,2013-06-11 20:12:00,
2013-06-11 15:22:00,92.0,73.0,-100.00,East,80,7.0,11.0,54,0.00,,,0.00,885.000000,,2013-06-11 20:22:00,
2013-06-11 15:32:00,92.0,73.0,-100.00,East,80,7.0,11.0,54,0.00,,,0.00,885.000000,,2013-06-11 20:32:00,
2013-06-11 15:42:00,92.0,73.0,-100.00,East,80,7.0,11.0,54,0.00,,,0.00,885.000000,,2013-06-11 20:42:00,
2013-06-11 15:52:00,92.0,73.0,-100.00,East,80,7.0,11.0,54,0.00,,,0.00,885.000000,,2013-06-11 20:52:00,
2013-06-11 16:12:00,95.0,74.0,-100.00,SE,145,6.0,10.0,51,0.00,,,0.00,742.000000,,2013-06-11 21:12:00,
2013-06-11 16:22:00,95.0,74.0,-100.00,SE,145,6.0,10.0,51,0.00,,,0.00,742.000000,,2013-06-11 21:22:00,
2013-06-11 16:33:00,95.0,74.0,-100.00,SE,145,6.0,10.0,51,0.00,,,0.00,742.000000,,2013-06-11 21:33:00,
2013-06-11 16:42:00,95.0,74.0,-100.00,SE,145,6.0,10.0,51,0.00,,,0.00,742.000000,,2013-06-11 21:42:00,
2013-06-11 16:52:00,95.0,74.0,-100.00,SE,145,6.0,10.0,51,0.00,,,0.00,742.000000,,2013-06-11 21:52:00,
2013-06-11 17:12:00,94.0,71.0,-100.00,ESE,115,8.0,13.0,48,0.00,,,0.00,650.000000,,2013-06-11 22:12:00,
2013-06-11 17:22:00,94.0,71.0,-100.00,ESE,115,8.0,13.0,48,0.00,,,0.00,650.000000,,2013-06-11 22:22:00,
2013-06-11 17:33:00,94.0,71.0,-100.00,ESE,115,8.0,13.0,48,0.00,,,0.00,650.000000,,2013-06-11 22:33:00,
2013-06-11 17:42:00,94.0,71.0,-100.00,ESE,115,8.0,13.0,48,0.00,,,0.00,650.000000,,2013-06-11 22:42:00,
2013-06-11 17:52:00,94.0,71.0,-100.00,ESE,115,8.0,13.0,48,0.00,,,0.00,650.000000,,2013-06-11 22:52:00,
2013-06-11 18:12:00,94.0,74.0,-100.00,ENE,72,4.0,10.0,53,0.00,,,0.00,499.000000,,2013-06-11 23:12:00,
2013-06-11 18:22:00,94.0,74.0,-100.00,ENE,72,4.0,10.0,53,0.00,,,0.00,499.000000,,2013-06-11 23:22:00,
2013-06-11 18:32:00,94.0,74.0,-100.00,ENE,72,4.0,10.0,53,0.00,,,0.00,499.000000,,2013-06-11 23:32:00,
2013-06-11 18:42:00,94.0,74.0,-100.00,ENE,72,4.0,10.0,53,0.00,,,0.00,499.000000,,2013-06-11 23:42:00,
2013-06-11 18:52:00,94.0,74.0,-100.00,ENE,72,4.0,10.0,53,0.00,,,0.00,499.000000,,2013-06-11 23:52:00,
2013-06-11 19:12:00,92.0,76.0,-100.00,ENE,77,3.0,6.0,60,0.00,,,0.00,294.000000,,2013-06-12 00:12:00,
2013-06-11 19:22:00,92.0,76.0,-100.00,ENE,77,3.0,6.0,60,0.00,,,0.00,294.000000,,2013-06-12 00:22:00,
2013-06-11 19:32:00,92.0,76.0,-100.00,ENE,77,3.0,6.0,60,0.00,,,0.00,294.000000,,2013-06-12 00:32:00,
2013-06-11 19:42:00,92.0,76.0,-100.00,ENE,77,3.0,6.0,60,0.00,,,0.00,294.000000,,2013-06-12 00:42:00,
2013-06-11 19:52:00,92.0,76.0,-100.00,ENE,77,3.0,6.0,60,0.00,,,0.00,294.000000,,2013-06-12 00:52:00,
2013-06-11 20:12:00,87.0,76.0,-100.00,ENE,73,3.0,5.0,70,0.00,,,0.00,81.000000,,2013-06-12 01:12:00,
2013-06-11 20:22:00,87.0,76.0,-100.00,ENE,73,3.0,5.0,70,0.00,,,0.00,81.000000,,2013-06-12 01:22:00,
2013-06-11 20:32:00,87.0,76.0,-100.00,ENE,73,3.0,5.0,70,0.00,,,0.00,81.000000,,2013-06-12 01:32:00,
2013-06-11 20:42:00,87.0,76.0,-100.00,ENE,73,3.0,5.0,70,0.00,,,0.00,81.000000,,2013-06-12 01:42:00,
2013-06-11 20:52:00,87.0,76.0,-100.00,ENE,73,3.0,5.0,70,0.00,,,0.00,81.000000,,2013-06-12 01:52:00,
2013-06-11 21:12:00,84.0,73.0,-100.00,East,86,3.0,5.0,69,0.00,,,0.00,8.000000,,2013-06-12 02:12:00,
2013-06-11 21:22:00,84.0,73.0,-100.00,East,86,3.0,5.0,69,0.00,,,0.00,8.000000,,2013-06-12 02:22:00,
2013-06-11 21:32:00,84.0,73.0,-100.00,East,86,3.0,5.0,69,0.00,,,0.00,8.000000,,2013-06-12 02:32:00,
2013-06-11 21:42:00,84.0,73.0,-100.00,East,86,3.0,5.0,69,0.00,,,0.00,8.000000,,2013-06-12 02:42:00,
2013-06-11 21:52:00,84.0,73.0,-100.00,East,86,3.0,5.0,69,0.00,,,0.00,8.000000,,2013-06-12 02:52:00,
2013-06-11 21:53:00,81.0,72.0,-100.00,East,82,5.0,6.0,73,0.00,,,0.00,1.000000,,2013-06-12 02:53:00,
2013-06-11 22:12:00,81.0,72.0,-100.00,East,82,5.0,6.0,73,0.00,,,0.00,1.000000,,2013-06-12 03:12:00,
2013-06-11 22:22:00,81.0,72.0,-100.00,East,82,5.0,6.0,73,0.00,,,0.00,1.000000,,2013-06-12 03:22:00,
2013-06-11 22:32:00,81.0,72.0,-100.00,East,82,5.0,6.0,73,0.00,,,0.00,1.000000,,2013-06-12 03:32:00,
2013-06-11 22:43:00,81.0,72.0,-100.00,East,82,5.0,6.0,73,0.00,,,0.00,1.000000,,2013-06-12 03:43:00,
2013-06-11 23:13:00,81.0,72.0,-100.00,East,99,5.0,7.0,73,0.00,,,0.00,1.000000,,2013-06-12 04:13:00,
2013-06-11 23:23:00,81.0,72.0,-100.00,East,99,5.0,7.0,73,0.00,,,0.00,1.000000,,2013-06-12 04:23:00,
2013-06-11 23:33:00,81.0,72.0,-100.00,East,99,5.0,7.0,73,0.00,,,0.00,1.000000,,2013-06-12 04:33:00,
2013-06-11 23:42:00,81.0,72.0,-100.00,East,99,5.0,7.0,73,0.00,,,0.00,1.000000,,2013-06-12 04:42:00,
2013-06-11 23:52:00,81.0,72.0,-100.00,East,99,5.0,7.0,73,0.00,,,0.00,1.000000,,2013-06-12 04:52:00,